Home > Weather > Carouge > Past weeks

Flag for Switzerland Weather for the Past 2 Weeks in Carouge, Geneva, Switzerland

Now
53 °F

Cool.


Feels Like: 53 °F
Forecast: 42 / 71 °F
Wind: 1 mph from Northwest

Location: Geneve-Cointrin

Current Time: May 7, 2016 at 12:56:14 AM

Latest Report: May 7, 2016 at 12:00 AM


Visibility: N/A

Pressure: 29.93 "Hg

Humidity: 71%

Dew Point: 44 °F

Location of CarougeLocation

Historic Weather in Carouge — Graph

°F

Carouge Temperature Yesterday

Maximum temperature yesterday: 72 °F (at 6:00 PM)
Minimum temperature yesterday: 42 °F (at 7:00 AM)
Average temperature yesterday: 57 °F

High & Low Weather Summary for the Past Weeks

 TemperatureHumidityPressure
High72 °F (May 6, 6:00 PM)94% (Apr 23, 12:00 AM)30.33 "Hg (Apr 23, 12:00 AM)
Low33 °F (Apr 28, 2:00 AM)21% (May 6, 7:00 PM)29.77 "Hg (Apr 26, 7:00 PM)
Average50 °F62%30.03 "Hg
* Reported Apr 21 11:00 PM — May 6 11:00 PM, Carouge, Weather by CustomWeather, © 2016

Note: Actual official high and low records may vary slightly from our data, if they occured in-between our weather recording intervals... More about our weather records

Advertising

Carouge Weather History for the Previous 24 Hours

Scroll right to see more
 ConditionsComfort  
Time TempWeatherWind HumidityBarometerVisibility
11:00 PM
Fri, May 6
58 °FPassing clouds.5 mph59%29.91 "Hg25 mi
10:00 PM60 °FRefreshingly cool.3 mph53%29.89 "HgN/A
9:00 PM63 °FMild.5 mph46%29.87 "HgN/A
8:00 PM68 °FScattered clouds.2 mph29%29.84 "Hg43 mi
7:00 PM71 °FMild.5 mph21%29.84 "HgN/A
6:00 PM72 °FMild.5 mph24%29.85 "HgN/A
5:00 PM71 °FPassing clouds.6 mph24%29.86 "Hg43 mi
4:00 PM71 °FMild.3 mph24%29.88 "HgN/A
3:00 PM68 °FMild.6 mph26%29.91 "HgN/A
2:00 PM68 °FScattered clouds.5 mph31%29.93 "Hg43 mi
1:00 PM66 °FMild.3 mph36%29.97 "HgN/A
12:00 PM63 °FMild.6 mph42%30.00 "HgN/A
11:00 AM59 °FPassing clouds.5 mph49%30.02 "Hg43 mi
10:00 AM57 °FRefreshingly cool.5 mph57%30.04 "HgN/A
9:00 AM52 °FCool.1 mph71%30.06 "HgN/A
8:00 AM49 °FPassing clouds.1 mph80%30.07 "Hg43 mi
7:00 AM42 °FQuite cool.2 mph90%30.08 "HgN/A
6:00 AM42 °FQuite cool.1 mph86%30.08 "HgN/A
5:00 AM42 °FClear.1 mph90%30.08 "Hg19 mi
4:00 AM42 °FQuite cool.1 mph90%30.08 "HgN/A
3:00 AM44 °FQuite cool.1 mph87%30.08 "HgN/A
2:00 AM46 °FClear.2 mph82%30.08 "Hg22 mi
1:00 AM47 °FCool.1 mph81%30.07 "HgN/A
12:00 AM49 °FCool.2 mph73%30.06 "HgN/A
Weather by CustomWeather, © 2016

See weather overviewHow to use our weather pages